Regional Weather Roundup
Issued by NWS Sterling, VA

Home | Current Version | Previous Version | Graphics & Text | Print | Product List | Glossary On
Versions: 1 2 3 4 5 6 7 8 9 10 11 12 13 14 15 16 17 18 19 20 21 22 23 24 25 26 27 28 29 30 31 32 33 34 35 36 37 38 39 40 41 42 43 44 45 46 47 48 49 50
000
ASUS41 KLWX 210210
RWRLWX

REGIONAL WEATHER ROUNDUP
NATIONAL WEATHER SERVICE BALTIMORE MD/WASHINGTON DC
1000 PM EDT SAT SEP 20 2014

Note: "FAIR" indicates few or no clouds below 12,000 feet
with no significant weather and/or obstructions to visibility.
 TC=TEMPERATURE CELSIUS

 * =Non NWS site. Station does not report precipitation (e.g. rain,
    snow, etc.), thunder, or fog.

DCZ001-MDZ009-015-VAZ040>042-051-053>054-210300-
WASHINGTON METRO

CITY           SKY/WX    TMP DP  RH WIND       PRES   REMARKS
WASHINGTON NAT CLEAR     72  61  68 S9        30.05F
DULLES         PTCLDY    67  60  78 S5        30.05S
ANDREWS AFB    CLEAR     66  62  87 SE7       30.05F
QUANTICO       CLEAR     71  64  78 S12       30.05F
COLLEGE PARK*  CLEAR     68  63  83 CALM      30.04F
LEESBURG*      CLEAR     68  61  77 S6        30.06S
MANASSAS*      CLEAR     66  64  94 S3        30.05
GAITHERSBURG*  CLEAR     63  57  82 CALM      30.09F

$$

MDZ006>007-011-014-210300-
BALTIMORE METRO

CITY           SKY/WX    TMP DP  RH WIND       PRES   REMARKS
BWI AIRPORT    PTCLDY    67  60  78 CALM      30.05F
MD SCIENCE CTR   N/A     73  63  70 MISG      30.05F
MARTIN STATE   CLEAR     70  64  83 E9        30.07F
ANNAPOLIS        N/A     70  64  81 SE10      30.05F
FORT MEADE*    CLEAR     61  59  94 CALM      30.07F

$$

MDZ012-015-019>023-210300-
MARYLAND EASTERN SHORE

CITY           SKY/WX    TMP DP  RH WIND       PRES   REMARKS
OCEAN CITY     CLOUDY    72  68  87 NE3       30.04F
SALISBURY      CLOUDY    71  66  84 E5        30.04F
BAY BRIDGE AP*   N/A     70  61  73 E5        30.06F
CAMBRIDGE*     PTCLDY    64  59  82 CALM      30.04F

$$

MDZ017>025-210300-
SOUTHERN MARYLAND

CITY           SKY/WX    TMP DP  RH WIND       PRES   REMARKS
PATUXENT RIVER MOCLDY    70  64  81 E7        30.04F
ST INIGOES     MOCLDY    63  58  83 CALM      30.03F
LEONARDTOWN*   MOCLDY    64  59  82 CALM      30.06F

$$

MDZ003>005-210300-
NORTH CENTRAL MARYLAND

CITY           SKY/WX    TMP DP  RH WIND       PRES   REMARKS
FREDERICK*     CLEAR     66  59  77 CALM      30.08R
HAGERSTOWN APT CLEAR     68  57  68 S6        30.05R
WESTMINSTER*   PTCLDY    66  57  72 CALM      30.07S

$$

MDZ501>502-210300-
WESTERN MARYLAND

CITY           SKY/WX    TMP DP  RH WIND       PRES   REMARKS
OAKLAND*       CLEAR     61  61 100 S6        30.12R
CUMBERLAND*    CLEAR     70  55  60 SW3       30.08R

$$

VAZ025>031-210300-
SHENANDOAH VALLEY

CITY           SKY/WX    TMP DP  RH WIND       PRES   REMARKS
WINCHESTER*    CLEAR     68  55  64 S7        30.06R
STAUNTON*      CLEAR     61  54  77 CALM      30.10R

$$

WVZ021-048>050-054>055-210300-
EASTERN WEST VIRGINIA PANHANDLE

CITY           SKY/WX    TMP DP  RH WIND       PRES   REMARKS
MARTINSBURG    CLEAR     68  54  60 S5        30.06R
PETERSBURG*    CLEAR     62  59  88 CALM      30.06R

$$

VAZ036>039-050-210300-
CENTRAL FOOTHILLS

CITY           SKY/WX    TMP DP  RH WIND       PRES   REMARKS
CHARLOTTESVILL CLEAR     66  58  75 W3        30.06R
ORANGE*        CLEAR     63  57  82 CALM      30.07S

$$

VAZ055>057-210300-
NORTH AND CENTRAL PIEDMONT

CITY           SKY/WX    TMP DP  RH WIND       PRES   REMARKS
FREDERICKSBRG* CLEAR     65  59  82 SE3       30.05S
STAFFORD*      CLEAR     61  61 100 CALM      30.09F

$$

NCZ024-NYZ072-PAZ021-071-VAZ022-071-210300-
OTHER REGIONAL OBSERVATIONS

CITY           SKY/WX    TMP DP  RH WIND       PRES   REMARKS
NEW YORK CITY  CLEAR     69  62  78 VRB7      30.12F
PHILADELPHIA   PTCLDY    67  61  81 SE6       30.08F
PITTSBURGH     PTCLDY    69  61  75 S5        29.99R
ROANOKE        CLEAR     66  58  75 N3        30.09S
RICHMOND       MOCLDY    68  63  84 E5        30.04F
RALEIGH        MOCLDY    68  59  73 NE5       30.02F

$$

ANZ530>537-210300-
MARINE OBSERVATIONS

STATION/POSITION TIME  TEMP    WIND        PRES
                       AIR SEA DIR/SP/G
                 (UTC) (F)     (DEG/KT/KT) (MB)
THOMAS PT LIGHT  0200   72 74  120/ 11/ 13 1018.7F
BALT KEY BRIDGE  0200   73     120/  7/ 10 1017.4S
COVE POINT       0200   70     140/ 10/ 12 1017.3F
LEWISETTA        0200   72 75  110/  9/ 11 1016.6F
SOLOMONS ISLAND  0200      76                N/A
PINEY POINT      0200          140/ 10/ 11   N/A

$$




USA.gov is the U.S. government's official web portal to all federal, state and local government web resources and services.